This demonstration page uses our WeatherBlox Daily Observations layout. Learn more.

Left ArrowRight Arrow

Hourly Observations for April 9, 2020

Temp ( °F °C ) Dew Point ( °F °C ) Humidity (%) Winds ( mph kmh ) Pressure ( in mb ) Visibility ( mi km ) Precip ( " mm )
12:53 am 00:53 Clear 52 11.1 48 8.9 86 86 N 5 7 29.95 1014 10 16 0.00 0.00
1:53 am 01:53 Clear 52 11.1 48 8.9 86 86 Calm 29.95 1014 10 16 0.00 0.00
2:53 am 02:53 Clear 50 10 47 8.3 89 89 Calm 29.95 1014 10 16 0.00 0.00
3:53 am 03:53 Clear 49 9.4 46 7.8 90 90 Calm 29.94 1014 10 16 0.00 0.00
4:53 am 04:53 Clear 47 8.3 45 7.2 93 93 Calm 29.95 1014 10 16 0.00 0.00
5:53 am 05:53 Clear 47 8.3 44 6.7 90 90 Calm 29.96 1015 9 14 0.00 0.00
6:53 am 06:53 Partly Cloudy 45 7.2 43 6.1 93 93 SSE 8 13 29.98 1015 8 13 0.00 0.00
7:04 am 07:04 Mostly Cloudy 46 7.8 45 7.2 96 96 S 3 6 30.01 1016 7 11 0.00 0.00
7:53 am 07:53 Cloudy 50 10 47 8.3 89 89 Calm 30.01 1016 8 13 0.00 0.00
8:53 am 08:53 Cloudy 52 11.1 49 9.4 89 89 SSW 3 6 30.03 1017 10 16 0.00 0.00
9:31 am 09:31 Cloudy 54 12.2 50 10 87 87 SW 5 7 30.04 1017 10 16 0.00 0.00
9:48 am 09:48 Cloudy 54 12 50 10 88 88 VRB 3 6 30.04 1017 10 16 0.00 0.00
9:53 am 09:53 Cloudy 55 12.8 50 10 83 83 SSW 5 7 30.04 1017 10 16 0.00 0.00
10:53 am 10:53 Cloudy 57 13.9 51 10.6 81 81 Calm 30.06 1018 10 16 0.00 0.00
11:03 am 11:03 Cloudy 58 14.4 51 10.6 78 78 Calm 30.06 1018 10 16 0.00 0.00
11:53 am 11:53 Cloudy 58 14.4 50 10 75 75 S 7 11 30.06 1018 10 16 0.00 0.00
12:22 pm 12:22 Cloudy 60 15.6 51 10.6 72 72 S 8 13 30.05 1017 10 16 0.00 0.00
12:34 pm 12:34 Cloudy 61 16.1 51 10.6 70 70 SE 7 11 30.05 1017 10 16 0.00 0.00
12:53 pm 12:53 Mostly Cloudy 61 16.1 51 10.6 70 70 S 9 15 30.04 1017 10 16 0.00 0.00
1:53 pm 13:53 Cloudy 62 16.7 50 10 65 65 SE 6 9 30.02 1017 10 16 0.00 0.00
2:53 pm 14:53 Cloudy 63 17.2 51 10.6 65 65 S 12 19 30.00 1016 10 16 0.00 0.00
3:53 pm 15:53 Cloudy 63 17.2 51 10.6 65 65 SSE 10 17 29.98 1015 10 16 0.00 0.00
4:53 pm 16:53 Cloudy 62 16.7 51 10.6 67 67 SE 10 17 29.96 1015 10 16 0.00 0.00
5:53 pm 17:53 Cloudy 61 16.1 51 10.6 70 70 SSE 9 15 29.96 1015 10 16 0.00 0.00
6:53 pm 18:53 Cloudy 60 15.6 51 10.6 72 72 SSE 10 17 29.97 1015 10 16 0.00 0.00
7:48 pm 19:48 Cloudy 61 16 52 11 72 72 S 6 9 29.99 1015 10 16 0.00 0.00
7:53 pm 19:53 Cloudy 60 15.6 51 10.6 72 72 SSW 7 11 29.98 1015 10 16 0.00 0.00
8:53 pm 20:53 Cloudy 59 15 51 10.6 75 75 S 7 11 30.01 1016 10 16 0.00 0.00
9:53 pm 21:53 Cloudy 58 14.4 50 10 75 75 S 5 7 30.04 1017 10 16 0.00 0.00
10:53 pm 22:53 Cloudy 58 14.4 50 10 75 75 S 5 7 30.05 1018 10 16 0.00 0.00
11:53 pm 23:53 Cloudy 58 14.4 49 9.4 72 72 Calm 30.07 1018 10 16 0.00 0.00

Powered by AerisWeather